| time (UTC) | temp F | wind direction | speed MPH | gust MPH | rain 1hr in | rain 24hr in | rain mn in | humidity % | barometer mb |
| 20260507170012 | 60 | 29 | 0.0 | 2.0 | 0.00 | 0.00 | 0.00 | 54 | 1007.9 |
| 20260507165518 | 59 | 56 | 0.0 | 0.0 | 0.00 | 0.00 | 0.00 | 55 | 1007.9 |
| 20260507165012 | 59 | 225 | 0.0 | 1.0 | 0.00 | 0.00 | 0.00 | 49 | 1008.0 |
| 20260507164511 | 60 | 269 | 0.0 | 1.0 | 0.00 | 0.00 | 0.00 | 55 | 1008.1 |
| 20260507164011 | 59 | 327 | 0.0 | 2.0 | 0.00 | 0.00 | 0.00 | 51 | 1008.1 |
| 20260507163511 | 59 | 333 | 0.0 | 2.0 | 0.00 | 0.00 | 0.00 | 56 | 1008.3 |
| 20260507163009 | 59 | 288 | 0.0 | 1.0 | 0.00 | 0.00 | 0.00 | 55 | 1008.3 |
| 20260507162511 | 59 | 308 | 0.0 | 3.0 | 0.00 | 0.00 | 0.00 | 53 | 1008.4 |
| 20260507162009 | 58 | 271 | 0.0 | 3.0 | 0.00 | 0.00 | 0.00 | 55 | 1008.5 |
| 20260507161509 | 58 | 257 | 0.0 | 1.0 | 0.00 | 0.00 | 0.00 | 53 | 1008.4 |
| 20260507161013 | 59 | 323 | 0.0 | 2.0 | 0.00 | 0.00 | 0.00 | 53 | 1008.5 |
| 20260507160508 | 59 | 19 | 0.0 | 2.0 | 0.00 | 0.00 | 0.00 | 56 | 1008.6 |
| 20260507160011 | 59 | 304 | 0.0 | 2.0 | 0.00 | 0.00 | 0.00 | 51 | 1008.6 |
| 20260507155606 | 59 | 335 | 0.0 | 2.0 | 0.00 | 0.00 | 0.00 | 57 | 1008.7 |
| 20260507155005 | 58 | 18 | 0.0 | 7.0 | 0.00 | 0.00 | 0.00 | 55 | 1008.7 |
| 20260507154508 | 58 | 331 | 0.0 | 10.0 | 0.00 | 0.00 | 0.00 | 55 | 1008.7 |
| 20260507154007 | 58 | 332 | 0.0 | 10.0 | 0.00 | 0.00 | 0.00 | 54 | 1008.8 |
| 20260507153505 | 58 | 52 | 0.0 | 5.0 | 0.00 | 0.00 | 0.00 | 52 | 1009.0 |
| 20260507153004 | 58 | 360 | 0.0 | 0.0 | 0.00 | 0.00 | 0.00 | 59 | 1008.9 |
| 20260507152504 | 57 | 304 | 0.0 | 0.0 | 0.00 | 0.00 | 0.00 | 60 | 1009.1 |
| 20260507152004 | 57 | 259 | 0.0 | 6.0 | 0.00 | 0.00 | 0.00 | 59 | 1009.1 |
| 20260507151507 | 57 | 295 | 0.0 | 6.0 | 0.00 | 0.00 | 0.00 | 56 | 1009.1 |
| 20260507151003 | 57 | 287 | 0.0 | 1.0 | 0.00 | 0.00 | 0.00 | 53 | 1009.1 |
| 20260507150503 | 58 | 340 | 0.0 | 9.0 | 0.00 | 0.00 | 0.00 | 57 | 1009.2 |
| 20260507150003 | 58 | 11 | 1.0 | 9.0 | 0.00 | 0.00 | 0.00 | 55 | 1009.4 |
| 20260507145502 | 58 | 5 | 0.0 | 5.0 | 0.00 | 0.02 | 0.00 | 56 | 1009.4 |
| 20260507145004 | 58 | 56 | 0.0 | 5.0 | 0.00 | 0.02 | 0.00 | 57 | 1009.5 |
| 20260507144601 | 57 | 39 | 0.0 | 2.0 | 0.00 | 0.02 | 0.00 | 58 | 1009.6 |
| 20260507144101 | 55 | 39 | 0.0 | 0.0 | 0.00 | 0.02 | 0.00 | 62 | 1009.7 |
| 20260507143600 | 54 | 360 | 0.0 | 0.0 | 0.00 | 0.02 | 0.00 | 61 | 1009.6 |
| 20260507143119 | 54 | 336 | 0.0 | 0.0 | 0.00 | 0.02 | 0.00 | 60 | 1009.6 |
| 20260507142601 | 54 | 47 | 0.0 | 0.0 | 0.00 | 0.02 | 0.00 | 59 | 1009.8 |
| 20260507142502 | 54 | 54 | 0.0 | 0.0 | 0.00 | 0.02 | 0.00 | 59 | 1009.8 |
| 20260507142101 | 54 | 351 | 0.0 | 0.0 | 0.00 | 0.02 | 0.00 | 63 | 1009.7 |
| 20260507141630 | 54 | 11 | 0.0 | 0.0 | 0.00 | 0.02 | 0.00 | 63 | 1009.9 |
| 20260507141100 | 53 | 340 | 0.0 | 0.0 | 0.00 | 0.02 | 0.00 | 61 | 1009.8 |
| 20260507140559 | 53 | 342 | 0.0 | 0.0 | 0.00 | 0.02 | 0.00 | 60 | 1010.0 |
| 20260507140113 | 53 | 9 | 0.0 | 0.0 | 0.00 | 0.02 | 0.00 | 60 | 1010.2 |
| 20260507135559 | 53 | 340 | 0.0 | 0.0 | 0.00 | 0.07 | 0.00 | 59 | 1010.3 |
| 20260507135058 | 53 | 340 | 0.0 | 0.0 | 0.00 | 0.07 | 0.00 | 60 | 1010.3 |
| 20260507134607 | 53 | 313 | 0.0 | 0.0 | 0.00 | 0.07 | 0.00 | 62 | 1010.3 |
| 20260507134057 | 52 | 274 | 0.0 | 2.0 | 0.00 | 0.07 | 0.00 | 63 | 1010.3 |
| 20260507133557 | 52 | 277 | 0.0 | 2.0 | 0.00 | 0.07 | 0.00 | 63 | 1010.3 |
| 20260507133104 | 52 | 327 | 0.0 | 3.0 | 0.00 | 0.07 | 0.00 | 61 | 1010.1 |
| 20260507132556 | 52 | 338 | 0.0 | 1.0 | 0.00 | 0.07 | 0.00 | 61 | 1010.1 |
| 20260507132058 | 52 | 294 | 0.0 | 0.0 | 0.00 | 0.07 | 0.00 | 63 | 1010.2 |
| 20260507131619 | 52 | 310 | 0.0 | 2.0 | 0.00 | 0.07 | 0.00 | 63 | 1010.2 |
| 20260507131056 | 52 | 315 | 0.0 | 2.0 | 0.00 | 0.07 | 0.00 | 63 | 1010.2 |
| 20260507130555 | 52 | 296 | 0.0 | 0.0 | 0.00 | 0.07 | 0.00 | 63 | 1010.3 |
| 20260507130105 | 52 | 355 | 0.0 | 0.0 | 0.00 | 0.07 | 0.00 | 63 | 1010.4 |
| 20260507125555 | 52 | 300 | 0.0 | 0.0 | 0.00 | 0.12 | 0.00 | 63 | 1010.3 |
| 20260507125055 | 52 | 276 | 0.0 | 3.0 | 0.00 | 0.12 | 0.00 | 62 | 1010.2 |
| 20260507124602 | 52 | 331 | 0.0 | 3.0 | 0.00 | 0.12 | 0.00 | 62 | 1010.4 |
| 20260507124057 | 52 | 296 | 0.0 | 0.0 | 0.00 | 0.12 | 0.00 | 63 | 1010.3 |
| 20260507123554 | 52 | 331 | 0.0 | 0.0 | 0.00 | 0.12 | 0.00 | 64 | 1010.2 |
| 20260507123101 | 52 | 281 | 0.0 | 1.0 | 0.00 | 0.12 | 0.00 | 62 | 1010.2 |
| 20260507122553 | 52 | 306 | 0.0 | 1.0 | 0.00 | 0.12 | 0.00 | 63 | 1010.1 |
| 20260507122057 | 52 | 296 | 0.0 | 0.0 | 0.00 | 0.12 | 0.00 | 63 | 1010.1 |
| 20260507121557 | 52 | 360 | 0.0 | 1.0 | 0.00 | 0.12 | 0.00 | 64 | 1010.1 |
| 20260507121053 | 52 | 338 | 0.0 | 1.0 | 0.00 | 0.12 | 0.00 | 64 | 1010.1 |
| 20260507120552 | 52 | 344 | 0.0 | 0.0 | 0.00 | 0.12 | 0.00 | 64 | 1010.2 |
| 20260507120051 | 52 | 360 | 0.0 | 0.0 | 0.00 | 0.12 | 0.00 | 63 | 1010.2 |
| 20260507115550 | 52 | 355 | 0.0 | 0.0 | 0.00 | 0.15 | 0.00 | 63 | 1010.1 |
| 20260507115049 | 52 | 360 | 0.0 | 0.0 | 0.00 | 0.15 | 0.00 | 64 | 1010.0 |
| 20260507114548 | 52 | 342 | 0.0 | 0.0 | 0.00 | 0.15 | 0.00 | 63 | 1009.9 |
| 20260507114052 | 52 | 63 | 0.0 | 1.0 | 0.00 | 0.15 | 0.00 | 63 | 1009.9 |
| 20260507113547 | 52 | 347 | 0.0 | 0.0 | 0.00 | 0.15 | 0.00 | 63 | 1009.8 |
| 20260507113107 | 51 | 13 | 0.0 | 0.0 | 0.00 | 0.15 | 0.00 | 63 | 1009.7 |
| 20260507112548 | 51 | 30 | 0.0 | 0.0 | 0.00 | 0.15 | 0.00 | 64 | 1009.7 |
| 20260507112050 | 51 | 5 | 0.0 | 0.0 | 0.00 | 0.15 | 0.00 | 64 | 1009.7 |
| 20260507111546 | 52 | 34 | 0.0 | 0.0 | 0.00 | 0.15 | 0.00 | 65 | 1009.8 |
| 20260507111047 | 52 | 55 | 0.0 | 0.0 | 0.00 | 0.15 | 0.00 | 65 | 1009.8 |
| 20260507110545 | 52 | 5 | 0.0 | 0.0 | 0.00 | 0.15 | 0.00 | 64 | 1009.7 |
| 20260507110045 | 52 | 9 | 0.0 | 0.0 | 0.00 | 0.15 | 0.00 | 63 | 1009.7 |
| 20260507105544 | 52 | 332 | 0.0 | 0.0 | 0.00 | 0.15 | 0.00 | 63 | 1009.7 |
| 20260507105043 | 52 | 339 | 0.0 | 0.0 | 0.00 | 0.15 | 0.00 | 64 | 1009.6 |
| 20260507104554 | 52 | 318 | 0.0 | 0.0 | 0.00 | 0.15 | 0.00 | 64 | 1009.6 |
| 20260507104042 | 52 | 300 | 0.0 | 2.0 | 0.00 | 0.15 | 0.00 | 64 | 1009.5 |
| 20260507103542 | 52 | 343 | 0.0 | 2.0 | 0.00 | 0.15 | 0.00 | 65 | 1009.4 |
| 20260507103040 | 52 | 279 | 0.0 | 5.0 | 0.00 | 0.15 | 0.00 | 66 | 1009.3 |
| 20260507102539 | 52 | 328 | 0.0 | 5.0 | 0.00 | 0.15 | 0.00 | 67 | 1009.2 |
| 20260507102039 | 52 | 355 | 0.0 | 3.0 | 0.00 | 0.15 | 0.00 | 69 | 1009.1 |
| 20260507101538 | 52 | 5 | 0.0 | 0.0 | 0.00 | 0.15 | 0.00 | 70 | 1009.1 |
| 20260507101037 | 52 | 355 | 0.0 | 0.0 | 0.00 | 0.15 | 0.00 | 71 | 1009.1 |
| 20260507100536 | 52 | 28 | 0.0 | 0.0 | 0.00 | 0.15 | 0.00 | 72 | 1008.9 |
| 20260507100046 | 52 | 15 | 0.0 | 0.0 | 0.00 | 0.15 | 0.00 | 72 | 1008.9 |
| 20260507095538 | 52 | 346 | 0.0 | 0.0 | 0.00 | 0.15 | 0.00 | 72 | 1009.0 |
| 20260507095037 | 52 | 26 | 0.0 | 0.0 | 0.00 | 0.15 | 0.00 | 73 | 1008.8 |
| 20260507094538 | 52 | 340 | 0.0 | 1.0 | 0.00 | 0.15 | 0.00 | 74 | 1008.8 |
| 20260507094036 | 53 | 316 | 0.0 | 3.0 | 0.00 | 0.15 | 0.00 | 75 | 1008.8 |
| 20260507093533 | 53 | 360 | 0.0 | 1.0 | 0.00 | 0.15 | 0.00 | 77 | 1008.7 |
| 20260507093035 | 53 | 355 | 0.0 | 0.0 | 0.00 | 0.15 | 0.00 | 77 | 1008.8 |
| 20260507092532 | 53 | 355 | 0.0 | 2.0 | 0.00 | 0.15 | 0.00 | 78 | 1008.7 |
| 20260507092034 | 53 | 314 | 0.0 | 2.0 | 0.00 | 0.15 | 0.00 | 79 | 1008.6 |
| 20260507091536 | 53 | 315 | 0.0 | 0.0 | 0.00 | 0.15 | 0.00 | 80 | 1008.5 |
| 20260507091030 | 53 | 319 | 0.0 | 0.0 | 0.00 | 0.15 | 0.00 | 80 | 1008.5 |
| 20260507090530 | 53 | 5 | 0.0 | 0.0 | 0.00 | 0.15 | 0.00 | 80 | 1008.5 |
| 20260507090029 | 53 | 319 | 0.0 | 0.0 | 0.00 | 0.15 | 0.00 | 79 | 1008.7 |
| 20260507085529 | 53 | 313 | 0.0 | 0.0 | 0.00 | 0.15 | 0.00 | 79 | 1008.7 |
| 20260507085029 | 53 | 313 | 0.0 | 0.0 | 0.00 | 0.15 | 0.00 | 79 | 1008.7 |
| 20260507084545 | 53 | 284 | 0.0 | 0.0 | 0.00 | 0.15 | 0.00 | 79 | 1008.5 |
| 20260507084028 | 53 | 313 | 0.0 | 0.0 | 0.00 | 0.15 | 0.00 | 79 | 1008.4 |
| 20260507083530 | 53 | 320 | 0.0 | 1.0 | 0.00 | 0.15 | 0.00 | 79 | 1008.6 |
| 20260507083028 | 53 | 311 | 0.0 | 1.0 | 0.00 | 0.15 | 0.00 | 79 | 1008.4 |
| 20260507082528 | 53 | 329 | 0.0 | 0.0 | 0.00 | 0.15 | 0.00 | 79 | 1008.6 |
| 20260507082027 | 53 | 328 | 0.0 | 0.0 | 0.00 | 0.15 | 0.00 | 79 | 1008.5 |
| 20260507081527 | 53 | 311 | 0.0 | 0.0 | 0.00 | 0.15 | 0.00 | 79 | 1008.5 |
| 20260507081026 | 53 | 311 | 0.0 | 0.0 | 0.00 | 0.15 | 0.00 | 79 | 1008.4 |
| 20260507080525 | 53 | 298 | 0.0 | 0.0 | 0.00 | 0.15 | 0.00 | 79 | 1008.3 |
| 20260507080025 | 53 | 335 | 0.0 | 0.0 | 0.00 | 0.15 | 0.00 | 79 | 1008.1 |
| 20260507075525 | 53 | 19 | 0.0 | 0.0 | 0.00 | 0.15 | 0.00 | 79 | 1008.1 |
| 20260507075025 | 53 | 5 | 0.0 | 0.0 | 0.00 | 0.15 | 0.00 | 79 | 1008.0 |
| 20260507074525 | 53 | 323 | 0.0 | 0.0 | 0.00 | 0.15 | 0.00 | 79 | 1008.0 |
| 20260507074026 | 53 | 24 | 0.0 | 0.0 | 0.00 | 0.15 | 0.00 | 79 | 1008.0 |
| 20260507073524 | 53 | 30 | 0.0 | 0.0 | 0.00 | 0.15 | 0.00 | 79 | 1007.9 |
| 20260507073026 | 53 | 346 | 0.0 | 0.0 | 0.00 | 0.15 | 0.00 | 80 | 1007.9 |
| 20260507072524 | 53 | 5 | 0.0 | 0.0 | 0.00 | 0.15 | 0.00 | 80 | 1008.0 |
| 20260507072023 | 53 | 322 | 0.0 | 0.0 | 0.00 | 0.15 | 0.00 | 81 | 1007.9 |
| 20260507071523 | 53 | 23 | 0.0 | 0.0 | 0.00 | 0.15 | 0.00 | 81 | 1007.8 |
| 20260507071022 | 53 | 5 | 0.0 | 0.0 | 0.00 | 0.15 | 0.00 | 82 | 1007.9 |
| 20260507070522 | 53 | 22 | 0.0 | 0.0 | 0.00 | 0.15 | 0.00 | 83 | 1007.9 |
| 20260507070024 | 53 | 10 | 0.0 | 0.0 | 0.00 | 0.15 | 0.00 | 83 | 1007.8 |
| 20260507065522 | 53 | 5 | 0.0 | 0.0 | 0.00 | 0.15 | 0.00 | 84 | 1007.8 |
| 20260507065021 | 53 | 338 | 0.0 | 0.0 | 0.00 | 0.15 | 0.00 | 84 | 1007.9 |
| 20260507064521 | 54 | 348 | 0.0 | 0.0 | 0.00 | 0.15 | 0.00 | 84 | 1007.8 |
| 20260507064020 | 54 | 336 | 0.0 | 0.0 | 0.00 | 0.15 | 0.00 | 84 | 1008.0 |
| 20260507063520 | 54 | 311 | 0.0 | 0.0 | 0.00 | 0.15 | 0.00 | 84 | 1008.2 |
| 20260507063019 | 54 | 333 | 0.0 | 0.0 | 0.00 | 0.15 | 0.00 | 84 | 1008.2 |
| 20260507062519 | 54 | 328 | 0.0 | 0.0 | 0.00 | 0.15 | 0.00 | 84 | 1008.2 |
| 20260507062019 | 54 | 316 | 0.0 | 0.0 | 0.00 | 0.15 | 0.00 | 83 | 1008.3 |
| 20260507061519 | 55 | 291 | 0.0 | 0.0 | 0.00 | 0.15 | 0.00 | 83 | 1008.4 |
| 20260507061017 | 54 | 279 | 0.0 | 1.0 | 0.00 | 0.15 | 0.00 | 83 | 1008.4 |
| 20260507060516 | 55 | 276 | 0.0 | 1.0 | 0.00 | 0.15 | 0.00 | 84 | 1008.3 |
| 20260507060024 | 55 | 344 | 0.0 | 0.0 | 0.00 | 0.15 | 0.00 | 84 | 1008.2 |
| 20260507055516 | 55 | 302 | 0.0 | 0.0 | 0.00 | 0.15 | 0.00 | 85 | 1008.2 |
| 20260507055015 | 55 | 323 | 0.0 | 0.0 | 0.00 | 0.15 | 0.00 | 84 | 1008.3 |
| 20260507054515 | 55 | 334 | 0.0 | 0.0 | 0.00 | 0.15 | 0.00 | 84 | 1008.2 |
| 20260507054015 | 55 | 344 | 0.0 | 0.0 | 0.00 | 0.15 | 0.00 | 85 | 1008.2 |
| 20260507053517 | 55 | 311 | 0.0 | 0.0 | 0.00 | 0.15 | 0.00 | 85 | 1008.1 |
| 20260507053015 | 55 | 327 | 0.0 | 0.0 | 0.00 | 0.15 | 0.00 | 85 | 1008.0 |
| 20260507052514 | 55 | 296 | 0.0 | 0.0 | 0.00 | 0.15 | 0.00 | 84 | 1007.9 |
| 20260507052014 | 55 | 285 | 0.0 | 0.0 | 0.00 | 0.15 | 0.00 | 84 | 1008.1 |
| 20260507051514 | 55 | 317 | 0.0 | 0.0 | 0.00 | 0.15 | 0.00 | 84 | 1008.2 |
| 20260507051016 | 55 | 337 | 0.0 | 0.0 | 0.00 | 0.15 | 0.00 | 83 | 1008.1 |
| 20260507050512 | 55 | 342 | 0.0 | 1.0 | 0.00 | 0.15 | 0.00 | 83 | 1008.3 |
| 20260507050034 | 55 | 343 | 0.0 | 1.0 | 0.00 | 0.15 | 0.00 | 83 | 1008.1 |
| 20260507045511 | 56 | 341 | 0.0 | 5.0 | 0.00 | 0.15 | 0.00 | 83 | 1008.3 |
| 20260507045011 | 56 | 5 | 0.0 | 5.0 | 0.00 | 0.15 | 0.00 | 82 | 1008.2 |
| 20260507044519 | 56 | 307 | 0.0 | 1.0 | 0.00 | 0.15 | 0.00 | 82 | 1008.1 |
| 20260507044011 | 56 | 327 | 0.0 | 1.0 | 0.00 | 0.15 | 0.00 | 82 | 1007.8 |
| 20260507043509 | 56 | 355 | 0.0 | 3.0 | 0.00 | 0.15 | 0.00 | 82 | 1007.9 |
| 20260507043009 | 56 | 305 | 0.0 | 9.0 | 0.00 | 0.15 | 0.00 | 82 | 1008.2 |
| 20260507042509 | 56 | 325 | 0.0 | 9.0 | 0.00 | 0.15 | 0.00 | 82 | 1008.2 |
| 20260507042007 | 56 | 360 | 0.0 | 1.0 | 0.00 | 0.15 | 0.00 | 82 | 1008.2 |
| 20260507041506 | 56 | 326 | 0.0 | 0.0 | 0.00 | 0.15 | 0.00 | 81 | 1008.0 |
| 20260507041004 | 56 | 349 | 0.0 | 5.0 | 0.00 | 0.15 | 0.00 | 81 | 1007.6 |
| 20260507040504 | 56 | 342 | 0.0 | 9.0 | 0.00 | 0.15 | 0.00 | 81 | 1007.7 |
| 20260507040002 | 57 | 283 | 0.0 | 12.0 | 0.00 | 0.15 | 0.00 | 81 | 1007.8 |
| 20260507035502 | 57 | 302 | 0.0 | 12.0 | 0.00 | 0.15 | 0.15 | 81 | 1008.0 |
| 20260507035001 | 57 | 285 | 0.0 | 9.0 | 0.00 | 0.15 | 0.15 | 81 | 1008.2 |
| 20260507034501 | 57 | 274 | 0.0 | 10.0 | 0.00 | 0.15 | 0.15 | 81 | 1008.0 |
| 20260507034059 | 57 | 335 | 0.0 | 10.0 | 0.00 | 0.15 | 0.15 | 81 | 1007.8 |
| 20260507033559 | 57 | 296 | 0.0 | 8.0 | 0.00 | 0.15 | 0.15 | 81 | 1007.7 |
| 20260507033102 | 57 | 14 | 0.0 | 1.0 | 0.00 | 0.15 | 0.15 | 81 | 1007.1 |
| 20260507032557 | 58 | 17 | 0.0 | 3.0 | 0.00 | 0.15 | 0.15 | 81 | 1007.3 |
| 20260507032056 | 58 | 278 | 0.0 | 3.0 | 0.00 | 0.15 | 0.15 | 81 | 1007.4 |
| 20260507031556 | 58 | 304 | 0.0 | 1.0 | 0.00 | 0.15 | 0.15 | 81 | 1007.5 |
| 20260507031055 | 58 | 311 | 0.0 | 4.0 | 0.00 | 0.15 | 0.15 | 81 | 1007.5 |
| 20260507030555 | 58 | 284 | 0.0 | 4.0 | 0.00 | 0.15 | 0.15 | 81 | 1007.4 |
| 20260507030055 | 58 | 339 | 0.0 | 4.0 | 0.00 | 0.15 | 0.15 | 81 | 1007.5 |
| 20260507025558 | 58 | 307 | 0.0 | 5.0 | 0.00 | 0.15 | 0.15 | 81 | 1007.6 |
| 20260507025053 | 58 | 315 | 0.0 | 5.0 | 0.00 | 0.15 | 0.15 | 82 | 1007.4 |
| 20260507024552 | 59 | 335 | 0.0 | 2.0 | 0.00 | 0.15 | 0.15 | 82 | 1007.2 |
| 20260507024100 | 59 | 306 | 0.0 | 4.0 | 0.00 | 0.15 | 0.15 | 82 | 1006.9 |
| 20260507023555 | 59 | 340 | 0.0 | 4.0 | 0.00 | 0.15 | 0.15 | 82 | 1006.8 |
| 20260507023050 | 59 | 355 | 0.0 | 4.0 | 0.00 | 0.15 | 0.15 | 82 | 1006.8 |
| 20260507022550 | 59 | 15 | 0.0 | 1.0 | 0.00 | 0.15 | 0.15 | 82 | 1007.1 |
| 20260507022050 | 59 | 342 | 0.0 | 2.0 | 0.00 | 0.15 | 0.15 | 82 | 1007.0 |
| 20260507021558 | 60 | 28 | 0.0 | 2.0 | 0.00 | 0.15 | 0.15 | 82 | 1007.0 |
| 20260507021048 | 60 | 300 | 0.0 | 4.0 | 0.00 | 0.15 | 0.15 | 83 | 1006.8 |
| 20260507020549 | 60 | 313 | 0.0 | 4.0 | 0.00 | 0.15 | 0.15 | 83 | 1006.8 |
| 20260507020048 | 60 | 309 | 0.0 | 6.0 | 0.00 | 0.15 | 0.15 | 84 | 1006.9 |
| 20260507015548 | 61 | 323 | 0.0 | 1.0 | 0.00 | 0.15 | 0.15 | 85 | 1006.9 |
| 20260507015048 | 61 | 360 | 0.0 | 1.0 | 0.00 | 0.15 | 0.15 | 85 | 1006.8 |
| 20260507014548 | 61 | 328 | 0.0 | 1.0 | 0.00 | 0.15 | 0.15 | 85 | 1006.9 |
| 20260507014048 | 61 | 339 | 0.0 | 0.0 | 0.00 | 0.15 | 0.15 | 85 | 1006.9 |
| 20260507013547 | 61 | 355 | 0.0 | 0.0 | 0.00 | 0.15 | 0.15 | 86 | 1006.8 |
| 20260507013048 | 62 | 9 | 0.0 | 1.0 | 0.00 | 0.15 | 0.15 | 86 | 1006.6 |
| 20260507012552 | 62 | 288 | 0.0 | 1.0 | 0.00 | 0.15 | 0.15 | 86 | 1006.5 |
| 20260507012051 | 62 | 290 | 0.0 | 1.0 | 0.00 | 0.15 | 0.15 | 86 | 1006.6 |
| 20260507011550 | 62 | 340 | 0.0 | 1.0 | 0.00 | 0.15 | 0.15 | 86 | 1006.5 |
| 20260507011046 | 62 | 277 | 0.0 | 1.0 | 0.00 | 0.15 | 0.15 | 86 | 1006.6 |
| 20260507010546 | 63 | 323 | 0.0 | 0.0 | 0.00 | 0.15 | 0.15 | 86 | 1006.6 |
| 20260507010047 | 63 | 322 | 0.0 | 0.0 | 0.00 | 0.15 | 0.15 | 86 | 1006.7 |
| 20260507005547 | 63 | 273 | 0.0 | 1.0 | 0.00 | 0.15 | 0.15 | 85 | 1006.7 |
| 20260507005046 | 63 | 286 | 0.0 | 1.0 | 0.00 | 0.15 | 0.15 | 84 | 1006.8 |
| 20260507004546 | 63 | 311 | 0.0 | 1.0 | 0.00 | 0.15 | 0.15 | 84 | 1006.7 |
| 20260507004046 | 63 | 344 | 0.0 | 1.0 | 0.00 | 0.15 | 0.15 | 83 | 1006.6 |
| 20260507003547 | 63 | 327 | 0.0 | 2.0 | 0.00 | 0.15 | 0.15 | 82 | 1006.6 |
| 20260507003046 | 64 | 306 | 0.0 | 2.0 | 0.00 | 0.15 | 0.15 | 82 | 1006.6 |
| 20260507002545 | 64 | 263 | 0.0 | 2.0 | 0.00 | 0.15 | 0.15 | 82 | 1006.8 |
| 20260507002046 | 64 | 274 | 0.0 | 2.0 | 0.00 | 0.15 | 0.15 | 82 | 1006.9 |
| 20260507001546 | 64 | 279 | 0.0 | 0.0 | 0.00 | 0.15 | 0.15 | 82 | 1006.6 |
| 20260507001044 | 64 | 275 | 0.0 | 0.0 | 0.00 | 0.15 | 0.15 | 82 | 1006.4 |
| 20260507000545 | 64 | 326 | 0.0 | 0.0 | 0.00 | 0.15 | 0.15 | 84 | 1006.3 |
| 20260507000045 | 64 | 311 | 0.0 | 3.0 | 0.00 | 0.15 | 0.15 | 85 | 1006.3 |
| 20260506235545 | 64 | 291 | 0.0 | 3.0 | 0.00 | 0.15 | 0.15 | 86 | 1006.3 |
| 20260506235044 | 65 | 275 | 0.0 | 0.0 | 0.00 | 0.15 | 0.15 | 87 | 1006.3 |
| 20260506234555 | 65 | 307 | 0.0 | 2.0 | 0.00 | 0.15 | 0.15 | 87 | 1006.1 |
| 20260506234044 | 65 | 292 | 0.0 | 2.0 | 0.00 | 0.15 | 0.15 | 88 | 1006.0 |
| 20260506233544 | 66 | 242 | 0.0 | 2.0 | 0.00 | 0.15 | 0.15 | 87 | 1005.9 |
| 20260506233044 | 66 | 221 | 0.0 | 2.0 | 0.00 | 0.15 | 0.15 | 87 | 1005.6 |
| 20260506232547 | 66 | 240 | 0.0 | 1.0 | 0.00 | 0.15 | 0.15 | 87 | 1005.6 |
| 20260506232043 | 67 | 250 | 0.0 | 0.0 | 0.00 | 0.15 | 0.15 | 86 | 1005.3 |
| 20260506231544 | 67 | 209 | 0.0 | 0.0 | 0.00 | 0.15 | 0.15 | 86 | 1005.4 |
| 20260506231043 | 67 | 209 | 0.0 | 0.0 | 0.00 | 0.15 | 0.15 | 85 | 1005.2 |
| 20260506230546 | 67 | 209 | 0.0 | 0.0 | 0.00 | 0.15 | 0.15 | 85 | 1005.3 |
| 20260506230042 | 67 | 208 | 0.0 | 0.0 | 0.00 | 0.15 | 0.15 | 85 | 1005.1 |
| 20260506225546 | 67 | 208 | 0.0 | 0.0 | 0.00 | 0.15 | 0.15 | 85 | 1005.2 |
| 20260506225042 | 68 | 208 | 0.0 | 0.0 | 0.00 | 0.15 | 0.15 | 85 | 1005.2 |
| 20260506224546 | 68 | 208 | 0.0 | 0.0 | 0.00 | 0.15 | 0.15 | 85 | 1005.2 |
| 20260506224041 | 68 | 208 | 0.0 | 0.0 | 0.00 | 0.15 | 0.15 | 85 | 1005.1 |
| 20260506223542 | 68 | 208 | 0.0 | 0.0 | 0.00 | 0.15 | 0.15 | 85 | 1005.0 |
| 20260506223048 | 68 | 200 | 0.0 | 0.0 | 0.00 | 0.15 | 0.15 | 85 | 1005.0 |
| 20260506222543 | 67 | 211 | 0.0 | 0.0 | 0.00 | 0.15 | 0.15 | 85 | 1004.9 |
| 20260506222045 | 67 | 205 | 0.0 | 1.0 | 0.00 | 0.15 | 0.15 | 85 | 1004.9 |
| 20260506221541 | 67 | 205 | 0.0 | 1.0 | 0.00 | 0.15 | 0.15 | 84 | 1004.9 |
| 20260506221044 | 67 | 205 | 0.0 | 1.0 | 0.00 | 0.15 | 0.15 | 85 | 1005.0 |
| 20260506220540 | 67 | 202 | 0.0 | 1.0 | 0.00 | 0.15 | 0.15 | 85 | 1004.9 |
| 20260506220041 | 67 | 175 | 0.0 | 1.0 | 0.00 | 0.15 | 0.15 | 84 | 1004.8 |
| 20260506215540 | 68 | 175 | 0.0 | 1.0 | 0.00 | 0.15 | 0.15 | 84 | 1004.9 |
| 20260506215040 | 68 | 175 | 0.0 | 0.0 | 0.00 | 0.15 | 0.15 | 83 | 1004.8 |
| 20260506214543 | 68 | 232 | 0.0 | 0.0 | 0.00 | 0.15 | 0.15 | 83 | 1004.8 |
| 20260506214040 | 68 | 232 | 0.0 | 0.0 | 0.00 | 0.15 | 0.15 | 83 | 1004.7 |
| 20260506213539 | 68 | 234 | 0.0 | 0.0 | 0.00 | 0.15 | 0.15 | 82 | 1004.8 |
| 20260506213040 | 68 | 225 | 0.0 | 0.0 | 0.00 | 0.15 | 0.15 | 82 | 1004.9 |
| 20260506212539 | 68 | 263 | 0.0 | 0.0 | 0.00 | 0.15 | 0.15 | 82 | 1004.8 |
| 20260506212039 | 68 | 219 | 0.0 | 0.0 | 0.00 | 0.15 | 0.15 | 82 | 1004.8 |
| 20260506211539 | 68 | 231 | 0.0 | 3.0 | 0.00 | 0.15 | 0.15 | 82 | 1004.6 |
| 20260506211038 | 68 | 215 | 0.0 | 3.0 | 0.00 | 0.15 | 0.15 | 82 | 1004.6 |
| 20260506210538 | 68 | 211 | 0.0 | 0.0 | 0.00 | 0.15 | 0.15 | 82 | 1004.5 |
| 20260506210039 | 68 | 219 | 0.0 | 6.0 | 0.00 | 0.15 | 0.15 | 82 | 1004.4 |
| 20260506205537 | 68 | 232 | 0.0 | 6.0 | 0.00 | 0.15 | 0.15 | 81 | 1004.3 |
| 20260506205037 | 68 | 216 | 0.0 | 1.0 | 0.00 | 0.15 | 0.15 | 81 | 1004.3 |
| 20260506204549 | 68 | 165 | 0.0 | 0.0 | 0.00 | 0.15 | 0.15 | 81 | 1004.1 |
| 20260506204040 | 68 | 225 | 0.0 | 0.0 | 0.00 | 0.15 | 0.15 | 81 | 1004.1 |
| 20260506203536 | 68 | 187 | 0.0 | 0.0 | 0.00 | 0.15 | 0.15 | 81 | 1004.1 |
| 20260506203036 | 68 | 195 | 0.0 | 1.0 | 0.00 | 0.15 | 0.15 | 81 | 1004.1 |
| 20260506202536 | 68 | 181 | 0.0 | 2.0 | 0.00 | 0.15 | 0.15 | 81 | 1004.1 |
| 20260506202035 | 68 | 226 | 0.0 | 3.0 | 0.00 | 0.15 | 0.15 | 80 | 1004.1 |
| 20260506201536 | 68 | 178 | 0.0 | 3.0 | 0.00 | 0.15 | 0.15 | 80 | 1004.3 |
| 20260506201035 | 68 | 235 | 0.0 | 9.0 | 0.00 | 0.15 | 0.15 | 80 | 1004.4 |
| 20260506200533 | 68 | 213 | 1.0 | 9.0 | 0.00 | 0.15 | 0.15 | 81 | 1004.3 |
| 20260506200035 | 68 | 216 | 0.0 | 6.0 | 0.00 | 0.15 | 0.15 | 82 | 1004.3 |
| 20260506195532 | 67 | 198 | 0.0 | 4.0 | 0.00 | 0.15 | 0.15 | 81 | 1004.4 |
| 20260506195034 | 67 | 187 | 0.0 | 4.0 | 0.00 | 0.15 | 0.15 | 81 | 1004.4 |
| 20260506194534 | 67 | 209 | 0.0 | 4.0 | 0.00 | 0.15 | 0.15 | 81 | 1004.5 |
| 20260506194031 | 67 | 235 | 0.0 | 4.0 | 0.00 | 0.15 | 0.15 | 81 | 1004.3 |
| 20260506193531 | 68 | 221 | 0.0 | 2.0 | 0.00 | 0.15 | 0.15 | 81 | 1004.4 |
| 20260506193031 | 68 | 188 | 0.0 | 0.0 | 0.00 | 0.15 | 0.15 | 80 | 1004.4 |
| 20260506192531 | 68 | 217 | 0.0 | 0.0 | 0.00 | 0.15 | 0.15 | 80 | 1004.4 |
| 20260506192030 | 68 | 217 | 0.0 | 0.0 | 0.00 | 0.15 | 0.15 | 80 | 1004.4 |
| 20260506191530 | 68 | 159 | 0.0 | 0.0 | 0.00 | 0.15 | 0.15 | 81 | 1004.5 |
| 20260506191029 | 68 | 228 | 0.0 | 0.0 | 0.00 | 0.15 | 0.15 | 81 | 1004.6 |
| 20260506190528 | 67 | 213 | 0.0 | 0.0 | 0.00 | 0.15 | 0.15 | 81 | 1004.6 |
| 20260506190029 | 67 | 155 | 0.0 | 3.0 | 0.00 | 0.15 | 0.15 | 81 | 1004.6 |
| 20260506185529 | 67 | 205 | 0.0 | 6.0 | 0.00 | 0.15 | 0.15 | 80 | 1004.7 |
| 20260506185028 | 68 | 175 | 0.0 | 6.0 | 0.00 | 0.15 | 0.15 | 80 | 1004.6 |
| 20260506184528 | 68 | 195 | 0.0 | 4.0 | 0.00 | 0.15 | 0.15 | 80 | 1004.5 |
| 20260506184027 | 68 | 169 | 0.0 | 5.0 | 0.00 | 0.15 | 0.15 | 81 | 1004.5 |
| 20260506183526 | 67 | 194 | 0.0 | 8.0 | 0.00 | 0.15 | 0.15 | 82 | 1004.6 |
| 20260506183026 | 67 | 161 | 0.0 | 8.0 | 0.00 | 0.15 | 0.15 | 81 | 1004.6 |
| 20260506182525 | 67 | 184 | 0.0 | 3.0 | 0.00 | 0.15 | 0.15 | 82 | 1004.7 |
| 20260506182025 | 66 | 171 | 0.0 | 3.0 | 0.00 | 0.15 | 0.15 | 82 | 1004.8 |
| 20260506181528 | 66 | 208 | 0.0 | 3.0 | 0.00 | 0.15 | 0.15 | 82 | 1004.9 |
| 20260506181028 | 66 | 166 | 0.0 | 1.0 | 0.00 | 0.15 | 0.15 | 84 | 1004.7 |
| 20260506180526 | 66 | 184 | 0.0 | 1.0 | 0.00 | 0.15 | 0.15 | 83 | 1004.9 |
| 20260506180024 | 66 | 163 | 0.0 | 0.0 | 0.00 | 0.15 | 0.15 | 84 | 1004.7 |
| 20260506175523 | 65 | 190 | 0.0 | 1.0 | 0.00 | 0.15 | 0.15 | 84 | 1004.9 |
| 20260506175023 | 65 | 202 | 0.0 | 1.0 | 0.00 | 0.15 | 0.15 | 84 | 1005.0 |
| 20260506174523 | 65 | 192 | 0.0 | 1.0 | 0.00 | 0.15 | 0.15 | 84 | 1004.9 |
| 20260506174022 | 65 | 169 | 0.0 | 5.0 | 0.00 | 0.15 | 0.15 | 83 | 1005.0 |
| 20260506173522 | 65 | 175 | 0.0 | 7.0 | 0.00 | 0.15 | 0.15 | 83 | 1005.0 |
| 20260506173022 | 65 | 188 | 0.0 | 7.0 | 0.00 | 0.15 | 0.15 | 83 | 1005.1 |
| 20260506172521 | 65 | 220 | 1.0 | 10.0 | 0.00 | 0.15 | 0.15 | 83 | 1005.1 |
| 20260506172021 | 65 | 198 | 0.0 | 11.0 | 0.00 | 0.15 | 0.15 | 84 | 1005.0 |
| 20260506171534 | 65 | 219 | 1.0 | 10.0 | 0.00 | 0.15 | 0.15 | 84 | 1005.1 |
| 20260506171020 | 65 | 161 | 0.0 | 7.0 | 0.00 | 0.15 | 0.15 | 85 | 1005.1 |
| 20260506170519 | 65 | 194 | 0.0 | 10.0 | 0.00 | 0.15 | 0.15 | 84 | 1005.0 |